Location: D�pe
(52.6057°N, 8.1808°E)
Time: 01:26:07
(UTC+00:00)

NOSS 3-3 (C) - Pass Details

Date: 29 October 2020
Orbit: 825 x 1387 km, 63.4° (Epoch: 22 November)

Event Time Altitude Azimuth Distance (km) Brightness Sun altitude
Rises 18:04:57 0° 208° (SSW) 3,431 7.2 -19.1°
Reaches altitude 10° 18:07:20 10° 204° (SSW) 2,543 6.4 -19.4°
Maximum altitude 18:13:06 59° 127° (SE) 1,098 4.0 -20.3°
Enters shadow 18:16:14 31° 60° (ENE) 1,705 4.8 -20.8°
